Location: Hamburg
(53.5554°N, 9.9941°E)
Time: 13:24:37
(UTC+02:00)

ISS - Pass Details

Date: 10 February 2018
Orbit: 403 x 408 km, 51.6° (Epoch: 22 September)

Event Time Altitude Azimuth Distance (km) Brightness Sun altitude
Rises 18:39:31 0° 278° (W) 2,323 1.7 -12.2°
Reaches altitude 10° 18:41:57 10° 260° (W) 1,461 0.5 -12.5°
Maximum altitude 18:44:24 20° 212° (SSW) 1,016 -1.3 -12.9°
Drops below altitude 10° 18:46:51 10° 163° (SSE) 1,460 -1.1 -13.2°
Enters shadow 18:48:26 - 150° (SSE) 2,001 -0.6 -13.5°
